Columbia Falls, MT

3:39 AM MDT on September 29, 2016 (GMT -0600)
Glacier Park International

Weather History for KGPI - April, 2014

Change the Weather History Date:

Friday, April 4, 2014

  Actual Average Record
Temperature  
Mean Temperature 45 °F 41 °F  
Max Temperature 52 °F 53 °F 70 °F (1960)
Min Temperature 37 °F 30 °F 13 °F (2001)
Degree Days  
Heating Degree Days 20 24  
Month to date heating degree days 94 97  
Since 1 July heating degree days 6983 6868  
Cooling Degree Days 0 0  
Month to date cooling degree days 0 0  
Year to date cooling degree days 0 0  
Moisture  
Dew Point 30 °F    
Average Humidity 56    
Maximum Humidity 70    
Minimum Humidity 42    
Precipitation  
Precipitation T in 0.04 in 0.45 in (1958)
Month to date precipitation T 0.15  
Year to date precipitation 4.88 3.54  
Snow  
Snow 0.00 in - - ()
Month to date snowfall 0.0  
Year to date snowfall 38.2  
Since 1 July snowfall 71.7  
Snow Depth 0.00 in    
Sea Level Pressure  
Sea Level Pressure 29.83 in    
Wind  
Wind Speed 10 mph (SW)    
Max Wind Speed 21 mph    
Max Gust Speed 27 mph    
Visibility 10 miles    
Events Rain    
T = Trace of Precipitation, MM = Missing Value Source: NWS Daily Summary

Daily Weather History Graph

Daily Weather History Graph

Search for Another Location

Airport or City:

Trip Planner

Search our weather history database for the weather conditions in past years. The results will help you decide how hot, cold, wet, or windy it might be!

Date:

Astronomy

Apr. 04, 2014 Rise Set
Actual Time 7:08 AM MDT 8:11 PM MDT
Civil Twilight 6:36 AM MDT 8:43 PM MDT
Nautical Twilight 5:58 AM MDT 9:22 PM MDT
Astronomical Twilight 5:18 AM MDT 10:03 PM MDT
Moon 10:12 AM MDT (4/4) 12:50 AM MDT (4/4)
Length of Visible Light 14h 06m
Length of Day
13h 03m
Waxing Crescent, 26% of the Moon is Illuminated
Apr 4
Waxing Crescent
Apr 7
First Quarter
Apr 15
Full
Apr 22
Last Quarter
Apr 29
New

Hourly Weather History & Observations

Time (MDT) Temp. Windchill Dew Point Humidity Pressure Visibility Wind Dir Wind Speed Gust Speed Precip Events Conditions
12:55 AM 39.0 °F 36.8 °F 26.1 °F 60% 29.88 in 10.0 mi SW 3.5 mph - N/A   Overcast
1:55 AM 43.0 °F 38.2 °F 28.0 °F 56% 29.88 in 10.0 mi WSW 8.1 mph - N/A   Overcast
2:55 AM 41.0 °F 39.0 °F 30.0 °F 65% 29.86 in 10.0 mi West 3.5 mph - N/A   Overcast
3:55 AM 41.0 °F 39.0 °F 30.9 °F 67% 29.86 in 10.0 mi SSW 3.5 mph - 0.00 in   Overcast
4:55 AM 41.0 °F 37.1 °F 32.0 °F 70% 29.85 in 10.0 mi SW 5.8 mph - N/A   Overcast
5:55 AM 39.9 °F 37.8 °F 33.1 °F 77% 29.83 in 10.0 mi SSW 3.5 mph - 0.00 in Rain Light Rain
6:55 AM 37.9 °F 31.5 °F 28.9 °F 70% 29.82 in 10.0 mi SSE 9.2 mph - 0.00 in   Mostly Cloudy
7:55 AM 39.0 °F 32.8 °F 30.9 °F 73% 29.84 in 10.0 mi South 9.2 mph - N/A   Overcast
8:55 AM 42.1 °F 35.2 °F 33.1 °F 70% 29.82 in 10.0 mi South 12.7 mph - N/A   Overcast
9:55 AM 43.0 °F 36.0 °F 33.1 °F 68% 29.83 in 10.0 mi SSE 13.8 mph - N/A   Overcast
10:55 AM 44.1 °F 38.1 °F 34.0 °F 68% 29.83 in 10.0 mi SSE 11.5 mph - N/A   Overcast
11:55 AM 48.0 °F - 30.9 °F 52% 29.81 in 10.0 mi West 12.7 mph 21.9 mph N/A   Overcast
12:55 PM 50.0 °F - 28.9 °F 44% 29.79 in 10.0 mi West 12.7 mph - N/A   Overcast
1:55 PM 50.0 °F - 30.9 °F 48% 29.77 in 10.0 mi West 17.3 mph 23.0 mph N/A   Overcast
2:55 PM 52.0 °F - 30.9 °F 45% 29.77 in 10.0 mi West 11.5 mph 23.0 mph N/A   Partly Cloudy
3:55 PM 48.9 °F - 32.0 °F 52% 29.78 in 10.0 mi WNW 10.4 mph 23.0 mph N/A   Mostly Cloudy
4:55 PM 46.9 °F - 28.9 °F 50% 29.78 in 10.0 mi West 9.2 mph - N/A   Overcast
5:55 PM 48.0 °F - 30.0 °F 50% 29.79 in 10.0 mi SW 12.7 mph - N/A   Partly Cloudy
6:55 PM 48.0 °F - 26.1 °F 42% 29.80 in 10.0 mi WSW 11.5 mph - N/A   Overcast
7:55 PM 44.1 °F 37.4 °F 27.0 °F 51% 29.83 in 10.0 mi SW 13.8 mph - N/A   Mostly Cloudy
8:55 PM 39.9 °F 32.9 °F 28.9 °F 65% 29.85 in 10.0 mi SSW 11.5 mph - N/A   Clear
9:55 PM 39.0 °F 33.4 °F 28.9 °F 67% 29.87 in 10.0 mi SSW 8.1 mph - N/A   Mostly Cloudy
10:55 PM 37.0 °F 31.0 °F 28.9 °F 73% 29.88 in 10.0 mi SSW 8.1 mph - N/A   Overcast
11:55 PM 39.0 °F 35.7 °F 28.9 °F 67% 29.87 in 10.0 mi South 4.6 mph - N/A   Overcast